KA2FNK Weather Reports


Display with metric or nautical units.
time (UTC)temp
F
wind
direction
speed
MPH
gust
MPH
rain 1hr
in
rain 24hr
in
rain mn
in
humidity
%
barometer
mb
20260507081706 46 9 0.0 0.0 0.00 0.01 0.00 66 1016.7
20260507081205 46 9 0.0 0.0 0.00 0.01 0.00 66 1016.7
20260507080704 46 9 0.0 0.0 0.00 0.01 0.00 65 1016.6
20260507080203 46 9 0.0 0.0 0.00 0.01 0.00 65 1016.5
20260507075702 47 9 0.0 0.0 0.00 0.01 0.00 65 1016.5
20260507075201 47 9 0.0 0.0 0.00 0.01 0.00 65 1016.5
20260507074700 47 9 0.0 0.0 0.00 0.01 0.00 65 1016.5
20260507074159 47 9 0.0 0.0 0.00 0.01 0.00 65 1016.5
20260507073658 47 9 0.0 0.0 0.00 0.01 0.00 64 1016.6
20260507073157 47 9 0.0 0.0 0.00 0.01 0.00 64 1016.6
20260507072656 48 9 0.0 0.0 0.00 0.01 0.00 63 1016.6
20260507072155 48 9 0.0 0.0 0.00 0.01 0.00 63 1016.8
20260507071654 48 9 0.0 0.0 0.00 0.01 0.00 62 1016.8
20260507071153 48 9 0.0 0.0 0.00 0.01 0.00 61 1016.8
20260507070652 48 9 0.0 0.0 0.00 0.01 0.00 61 1016.9
20260507070151 49 9 0.0 0.0 0.00 0.01 0.00 60 1017.0
20260507065650 49 9 0.0 0.0 0.00 0.01 0.00 60 1017.0
20260507065149 49 9 0.0 0.0 0.00 0.01 0.00 60 1017.1
20260507064648 49 9 0.0 0.0 0.00 0.01 0.00 60 1017.1
20260507064147 49 9 0.0 0.0 0.00 0.01 0.00 59 1017.2
20260507063646 49 9 0.0 0.0 0.00 0.01 0.00 59 1017.2
20260507063145 49 9 0.0 0.0 0.00 0.01 0.00 58 1017.3
20260507062644 49 9 0.0 0.0 0.00 0.01 0.00 59 1017.2
20260507062143 49 9 0.0 0.0 0.00 0.01 0.00 60 1017.2
20260507061642 49 9 0.0 0.0 0.00 0.01 0.00 61 1017.2
20260507061141 49 9 0.0 0.0 0.00 0.01 0.00 61 1017.1
20260507060640 49 9 0.0 0.0 0.00 0.01 0.00 62 1017.2
20260507060139 49 9 0.0 0.0 0.00 0.01 0.00 63 1017.2
20260507055638 49 9 0.0 0.0 0.00 0.01 0.00 63 1017.2
20260507055137 48 9 0.0 0.0 0.00 0.01 0.00 62 1017.2
20260507054636 48 9 0.0 0.0 0.00 0.01 0.00 63 1017.2
20260507054135 48 9 0.0 0.0 0.00 0.01 0.00 63 1017.3
20260507053634 48 9 0.0 0.0 0.00 0.01 0.00 62 1017.4
20260507053133 48 9 0.0 0.0 0.00 0.01 0.00 62 1017.3
20260507052632 48 9 0.0 0.0 0.00 0.01 0.00 62 1017.3
20260507052131 48 9 0.0 0.0 0.00 0.01 0.00 63 1017.3
20260507051630 48 9 0.0 0.0 0.00 0.01 0.00 62 1017.3
20260507051129 48 9 0.0 0.0 0.00 0.01 0.00 62 1017.3
20260507050628 48 9 0.0 0.0 0.00 0.01 0.00 62 1017.3
20260507050127 48 9 0.0 0.0 0.00 0.01 0.00 63 1017.4
20260507045626 48 9 0.0 0.0 0.00 0.01 0.01 63 1017.3
20260507045125 48 9 0.0 0.0 0.00 0.01 0.01 69 1017.3
20260507044624 48 9 0.0 0.0 0.00 0.01 0.01 70 1017.3
20260507044123 48 9 0.0 0.0 0.00 0.01 0.01 71 1017.3
20260507043622 48 9 0.0 0.0 0.00 0.01 0.01 70 1017.3
20260507043121 48 9 0.0 0.0 0.00 0.01 0.01 71 1017.2
20260507042620 48 9 0.0 0.0 0.00 0.01 0.01 69 1017.2
20260507042119 48 9 0.0 0.0 0.00 0.01 0.01 71 1017.2
20260507041618 48 9 0.0 0.0 0.00 0.01 0.01 71 1017.3
20260507041117 48 9 0.0 0.0 0.00 0.01 0.01 71 1017.3
20260507040616 48 9 0.0 0.0 0.00 0.01 0.01 72 1017.5
20260507040115 48 9 0.0 0.0 0.00 0.01 0.01 71 1017.4
20260507035614 48 9 0.0 0.0 0.00 0.01 0.01 71 1017.5
20260507035113 48 9 0.0 0.0 0.00 0.01 0.01 61 1017.6
20260507034612 48 9 0.0 0.0 0.00 0.01 0.01 61 1017.6
20260507034111 48 9 0.0 0.0 0.00 0.01 0.01 60 1017.6
20260507033610 49 9 0.0 0.0 0.00 0.01 0.01 60 1017.5
20260507033109 49 9 0.0 0.0 0.00 0.01 0.01 60 1017.4
20260507032608 49 9 0.0 0.0 0.00 0.01 0.01 61 1017.4
20260507032107 49 9 0.0 0.0 0.00 0.01 0.01 62 1017.4
20260507031606 49 9 0.0 0.0 0.00 0.01 0.01 62 1017.4
20260507031105 49 9 0.0 0.0 0.00 0.01 0.01 62 1017.5
20260507030605 49 9 0.0 0.0 0.00 0.01 0.01 61 1017.5
20260507025602 49 9 0.0 0.0 0.00 0.03 0.01 59 1017.5
20260507025102 49 9 0.0 0.0 0.00 0.03 0.01 58 1017.4
20260507024600 49 9 0.0 0.0 0.00 0.03 0.01 59 1017.4
20260507024059 50 9 0.0 0.0 0.00 0.03 0.01 57 1017.3
20260507023558 50 9 0.0 0.0 0.00 0.03 0.01 55 1017.3
20260507023057 50 9 0.0 0.0 0.00 0.03 0.01 53 1017.3
20260507022556 50 9 0.0 0.0 0.00 0.03 0.01 54 1017.2
20260507022055 51 9 0.0 0.0 0.00 0.03 0.01 52 1017.2
20260507021554 51 9 0.0 0.0 0.00 0.03 0.01 51 1017.1
20260507021053 51 9 0.0 0.0 0.00 0.03 0.01 50 1017.1
20260507020552 51 9 0.0 0.0 0.00 0.03 0.01 49 1017.1
20260507020051 52 9 0.0 0.0 0.00 0.03 0.01 49 1017.0
20260507015550 52 9 0.0 0.0 0.00 0.03 0.01 49 1017.0
20260507015049 52 9 0.0 0.0 0.00 0.03 0.01 49 1016.9
20260507014548 53 9 0.0 0.0 0.00 0.03 0.01 47 1016.9
20260507014047 53 9 0.0 0.0 0.00 0.03 0.01 46 1017.0
20260507013547 53 9 0.0 0.0 0.00 0.03 0.01 47 1016.9
20260507013046 54 9 0.0 0.0 0.00 0.03 0.01 45 1016.9
20260507012544 54 9 0.0 0.0 0.00 0.03 0.01 45 1016.8
20260507012043 54 9 0.0 0.0 0.00 0.03 0.01 44 1016.8
20260507011542 55 9 0.0 0.0 0.00 0.03 0.01 43 1016.7
20260507011042 55 9 0.0 0.0 0.00 0.03 0.01 42 1016.7
20260507010540 55 9 0.0 0.0 0.00 0.03 0.01 41 1016.7
20260507010039 56 9 0.0 0.0 0.00 0.03 0.01 40 1016.6
20260507005539 56 9 0.0 0.0 0.00 0.03 0.01 39 1016.7
20260507005038 56 9 0.0 0.0 0.00 0.03 0.01 40 1016.6
20260507004537 56 9 0.0 0.0 0.00 0.03 0.01 39 1016.7
20260507004035 56 9 0.0 0.0 0.00 0.03 0.01 38 1016.6
20260507003534 57 9 0.0 0.0 0.00 0.03 0.01 37 1016.6
20260507003034 56 9 0.0 0.0 0.00 0.03 0.01 37 1016.6
20260507002533 57 9 0.0 3.0 0.00 0.03 0.01 37 1016.6
20260507002032 57 324 0.0 4.0 0.00 0.03 0.01 38 1016.6
20260507001530 57 313 0.0 3.0 0.00 0.03 0.01 36 1016.6
20260507001030 57 306 0.0 0.0 0.00 0.03 0.01 35 1016.6
20260507000529 57 306 0.0 5.0 0.00 0.03 0.01 35 1016.7
20260507000026 57 347 2.0 3.0 0.00 0.03 0.01 37 1016.7
20260506235525 57 4 1.0 6.0 0.00 0.03 0.01 38 1016.7
20260506235024 57 5 0.0 5.0 0.00 0.03 0.01 36 1016.6
20260506234523 57 23 0.0 0.0 0.00 0.03 0.01 35 1016.7
20260506234022 57 23 0.0 0.0 0.00 0.03 0.01 36 1016.7
20260506233521 57 23 0.0 3.0 0.00 0.03 0.01 37 1016.6
20260506233020 57 343 0.0 0.0 0.00 0.03 0.01 34 1016.7
20260506232520 57 343 0.0 7.0 0.00 0.03 0.01 35 1016.7
20260506232019 58 292 0.0 4.0 0.00 0.03 0.01 36 1016.7
20260506231518 58 322 0.0 1.0 0.00 0.03 0.01 34 1016.6
20260506231016 57 347 0.0 5.0 0.00 0.03 0.01 35 1016.7
20260506230515 58 18 0.0 0.0 0.00 0.03 0.01 36 1016.6
20260506230014 58 18 0.0 4.0 0.00 0.03 0.01 36 1016.7
20260506225514 57 49 3.0 10.0 0.00 0.03 0.01 34 1016.7
20260506225013 57 8 1.0 8.0 0.00 0.03 0.01 34 1016.7
20260506224511 57 327 3.0 15.0 0.00 0.03 0.01 36 1016.7
20260506224011 58 14 7.0 9.0 0.00 0.03 0.01 35 1016.6
20260506223509 58 354 4.0 11.0 0.00 0.03 0.01 35 1016.8
20260506223008 58 334 2.0 7.0 0.00 0.03 0.01 37 1016.8
20260506222508 58 274 0.0 6.0 0.00 0.03 0.01 36 1016.9
20260506222005 58 343 3.0 4.0 0.00 0.03 0.01 35 1016.9
20260506221504 58 319 0.0 5.0 0.00 0.03 0.01 35 1016.9
20260506221003 58 11 2.0 10.0 0.00 0.03 0.01 36 1016.9
20260506220502 58 299 0.0 8.0 0.00 0.03 0.01 37 1016.9
20260506220002 58 322 3.0 6.0 0.00 0.03 0.01 35 1017.0
20260506215501 58 355 0.0 10.0 0.00 0.03 0.01 38 1016.9
20260506215000 58 351 0.0 10.0 0.00 0.03 0.01 36 1016.9
20260506214458 58 319 7.0 10.0 0.00 0.03 0.01 35 1017.1
20260506213958 58 315 0.0 13.0 0.00 0.03 0.01 37 1017.1
20260506213457 58 64 4.0 13.0 0.00 0.03 0.01 37 1017.0
20260506212955 58 2 4.0 5.0 0.00 0.03 0.01 39 1017.1
20260506212454 58 350 0.0 3.0 0.00 0.03 0.01 38 1017.1
20260506211954 58 19 2.0 8.0 0.00 0.03 0.01 39 1017.1
20260506211452 58 25 4.0 11.0 0.00 0.03 0.01 37 1017.2
20260506210951 58 26 1.0 13.0 0.00 0.03 0.01 36 1017.5
20260506210450 58 5 3.0 5.0 0.00 0.03 0.01 38 1017.5
20260506205949 57 336 0.0 9.0 0.00 0.03 0.01 36 1017.6
20260506205448 58 333 4.0 5.0 0.00 0.03 0.01 38 1017.7
20260506204947 58 326 3.0 12.0 0.00 0.03 0.01 34 1017.7
20260506204447 58 310 1.0 5.0 0.00 0.03 0.01 38 1017.7
20260506203945 58 307 5.0 9.0 0.00 0.03 0.01 38 1017.7
20260506203443 58 322 0.0 8.0 0.00 0.03 0.01 40 1017.7
20260506202942 58 312 1.0 4.0 0.00 0.03 0.01 38 1017.8
20260506202441 57 29 3.0 7.0 0.00 0.03 0.01 40 1018.0
20260506201940 57 333 1.0 11.0 0.00 0.03 0.01 36 1018.0
20260506201439 57 35 0.0 7.0 0.00 0.03 0.01 40 1018.1
20260506200939 57 333 1.0 7.0 0.00 0.03 0.01 39 1018.1
20260506200437 57 344 1.0 10.0 0.00 0.03 0.01 41 1018.2
20260506195937 57 358 0.0 10.0 0.00 0.03 0.01 38 1018.2
20260506195436 57 348 0.0 6.0 0.00 0.03 0.01 39 1018.3
20260506194935 56 8 6.0 11.0 0.00 0.03 0.01 36 1018.2
20260506194434 57 358 8.0 12.0 0.00 0.03 0.01 38 1018.3
20260506193933 57 15 0.0 6.0 0.00 0.03 0.01 37 1018.2
20260506193431 57 2 0.0 0.0 0.00 0.03 0.01 41 1018.2
20260506192930 57 2 0.0 6.0 0.00 0.03 0.01 41 1018.2
20260506192429 56 14 2.0 12.0 0.00 0.03 0.01 41 1018.2
20260506191929 56 21 3.0 8.0 0.00 0.03 0.01 37 1018.3
20260506191427 56 64 0.0 6.0 0.00 0.03 0.01 36 1018.3
20260506190926 56 28 1.0 3.0 0.00 0.03 0.01 42 1018.3
20260506190425 56 78 0.0 7.0 0.00 0.03 0.01 40 1018.3
20260506185924 56 25 6.0 7.0 0.00 0.03 0.01 38 1018.4
20260506185423 56 8 0.0 8.0 0.00 0.03 0.01 41 1018.5
20260506184922 55 7 10.0 15.0 0.00 0.03 0.01 39 1018.4
20260506184421 55 22 0.0 7.0 0.00 0.03 0.01 39 1018.5
20260506183921 56 333 0.0 4.0 0.00 0.03 0.01 40 1018.5
20260506183419 55 223 1.0 5.0 0.00 0.03 0.01 41 1018.6
20260506182918 55 352 0.0 7.0 0.00 0.03 0.01 43 1018.7
20260506182418 54 18 4.0 9.0 0.00 0.03 0.01 40 1018.8
20260506181916 54 18 0.0 0.0 0.00 0.03 0.01 40 1018.8
20260506181416 54 18 0.0 2.0 0.00 0.03 0.01 42 1018.8
20260506180914 54 336 3.0 6.0 0.00 0.03 0.01 40 1018.8
20260506180413 54 341 2.0 6.0 0.00 0.03 0.01 40 1018.9
20260506175912 54 35 2.0 7.0 0.00 0.03 0.01 45 1018.9
20260506175411 54 358 5.0 8.0 0.00 0.03 0.01 42 1018.9
20260506174911 54 312 0.0 9.0 0.00 0.03 0.01 43 1018.9
20260506174410 54 358 1.0 10.0 0.00 0.03 0.01 41 1018.9
20260506173909 54 350 0.0 8.0 0.00 0.03 0.01 40 1018.9
20260506173408 54 305 0.0 5.0 0.00 0.03 0.01 41 1018.9
20260506172906 54 338 1.0 8.0 0.00 0.03 0.01 42 1018.9
20260506172406 55 336 0.0 5.0 0.00 0.03 0.01 42 1018.9
20260506171905 54 1 3.0 10.0 0.00 0.03 0.01 43 1018.9
20260506171403 54 312 0.0 7.0 0.00 0.03 0.01 42 1018.9
20260506170903 54 40 0.0 11.0 0.00 0.03 0.01 41 1019.0
20260506170402 54 341 4.0 8.0 0.00 0.03 0.01 38 1019.0
20260506165900 55 331 1.0 11.0 0.00 0.05 0.01 42 1018.9
20260506165359 54 313 0.0 5.0 0.00 0.05 0.01 46 1018.9
20260506164859 54 307 2.0 13.0 0.00 0.05 0.01 40 1019.0
20260506164357 54 45 7.0 10.0 0.00 0.05 0.01 42 1018.9
20260506163857 54 2 0.0 11.0 0.00 0.05 0.01 42 1018.9
20260506163356 54 354 2.0 9.0 0.00 0.05 0.01 43 1018.9
20260506162854 54 326 2.0 10.0 0.00 0.05 0.01 43 1018.9
20260506162353 54 14 9.0 10.0 0.00 0.05 0.01 45 1018.9
20260506161852 54 281 1.0 9.0 0.00 0.05 0.01 44 1018.9
20260506161352 54 25 0.0 3.0 0.00 0.05 0.01 44 1018.8
20260506160850 54 358 0.0 15.0 0.00 0.05 0.01 45 1018.8
20260506160350 54 338 0.0 6.0 0.00 0.05 0.01 45 1018.7
20260506155849 54 327 7.0 10.0 0.00 0.07 0.01 47 1018.6
20260506155347 53 52 4.0 11.0 0.00 0.07 0.01 47 1018.6
20260506154846 53 12 6.0 9.0 0.00 0.07 0.01 47 1018.4
20260506154345 53 28 10.0 10.0 0.00 0.07 0.01 47 1018.5
20260506153844 53 348 2.0 7.0 0.01 0.07 0.01 46 1018.4
20260506153343 53 15 7.0 13.0 0.01 0.07 0.01 47 1018.4
20260506152842 53 9 2.0 12.0 0.01 0.07 0.01 45 1018.3
20260506152341 53 358 2.0 8.0 0.01 0.07 0.01 45 1018.3
20260506151840 53 330 1.0 6.0 0.01 0.07 0.01 45 1018.3
20260506151339 53 1 2.0 7.0 0.01 0.07 0.01 49 1018.2
20260506150838 53 340 3.0 8.0 0.01 0.07 0.01 54 1018.4
20260506150337 53 310 0.0 8.0 0.01 0.07 0.01 53 1018.3
20260506145836 52 23 3.0 9.0 0.01 0.10 0.01 52 1018.3
20260506145335 52 331 0.0 3.0 0.01 0.10 0.01 52 1018.4
20260506144834 52 15 1.0 2.0 0.01 0.10 0.01 58 1018.4
20260506144334 52 15 5.0 6.0 0.01 0.10 0.01 58 1018.4
20260506143832 52 12 5.0 6.0 0.00 0.09 0.00 60 1018.4
20260506143331 51 341 0.0 2.0 0.00 0.09 0.00 60 1018.3
20260506142830 51 22 5.0 6.0 0.00 0.09 0.00 61 1018.3
20260506142329 51 282 0.0 0.0 0.00 0.09 0.00 61 1018.4
20260506141828 51 282 0.0 4.0 0.00 0.09 0.00 61 1018.4
20260506141327 51 36 0.0 3.0 0.00 0.09 0.00 63 1018.2
20260506140826 51 360 0.0 7.0 0.00 0.09 0.00 62 1018.2
20260506140325 51 358 2.0 3.0 0.00 0.09 0.00 64 1018.1
20260506135824 50 15 0.0 4.0 0.00 0.15 0.00 63 1018.0
20260506135323 50 295 0.0 5.0 0.00 0.15 0.00 64 1017.8
20260506134822 50 9 1.0 2.0 0.00 0.15 0.00 66 1017.8
20260506134321 50 35 0.0 5.0 0.00 0.15 0.00 66 1017.5
20260506133820 50 358 1.0 5.0 0.00 0.15 0.00 64 1017.6
20260506133319 50 358 0.0 3.0 0.00 0.15 0.00 67 1017.6
20260506132818 49 348 0.0 4.0 0.00 0.15 0.00 70 1017.5
20260506132317 49 282 0.0 1.0 0.00 0.15 0.00 69 1017.4
20260506131816 49 344 3.0 5.0 0.00 0.15 0.00 73 1017.4
20260506131315 49 22 0.0 0.0 0.00 0.15 0.00 73 1017.2
20260506130814 48 324 0.0 5.0 0.00 0.15 0.00 76 1017.2
20260506130313 48 326 0.0 3.0 0.00 0.15 0.00 76 1017.1
20260506125812 47 348 0.0 3.0 0.00 0.17 0.00 79 1017.1
20260506125311 47 322 0.0 4.0 0.00 0.17 0.00 81 1017.1
20260506124811 47 281 0.0 0.0 0.00 0.17 0.00 84 1017.0
20260506124309 46 307 0.0 1.0 0.00 0.17 0.00 85 1016.8
20260506123809 46 296 0.0 1.0 0.00 0.17 0.00 86 1016.8
20260506123308 46 327 1.0 2.0 0.00 0.17 0.00 87 1016.7
20260506122806 46 302 0.0 1.0 0.00 0.17 0.00 88 1016.6
20260506122306 46 309 1.0 2.0 0.00 0.17 0.00 90 1016.5
20260506121804 46 329 1.0 2.0 0.00 0.17 0.00 92 1016.4
20260506121303 45 205 0.0 0.0 0.00 0.17 0.00 93 1016.3
20260506120802 46 205 0.0 0.0 0.00 0.17 0.00 93 1016.3
20260506120301 45 205 0.0 0.0 0.00 0.17 0.00 93 1016.1
20260506115800 46 205 0.0 0.0 0.00 0.28 0.00 93 1015.9
20260506115300 45 205 0.0 0.0 0.00 0.28 0.00 93 1015.9
20260506114758 45 205 0.0 0.0 0.00 0.28 0.00 93 1015.8
20260506114258 45 205 0.0 0.0 0.00 0.28 0.00 92 1015.7
20260506113756 45 205 0.0 0.0 0.00 0.28 0.00 92 1015.8
20260506113255 45 205 0.0 0.0 0.00 0.28 0.00 92 1015.6
20260506112754 45 205 0.0 0.0 0.00 0.28 0.00 92 1015.4
20260506112253 45 205 0.0 2.0 0.00 0.28 0.00 92 1015.4
20260506111752 45 338 0.0 3.0 0.00 0.28 0.00 92 1015.5
20260506111251 46 21 2.0 3.0 0.00 0.28 0.00 92 1015.7
20260506110750 45 234 2.0 3.0 0.00 0.28 0.00 92 1015.7
20260506110249 45 223 0.0 2.0 0.00 0.28 0.00 92 1016.0
20260506105748 45 277 1.0 2.0 0.00 0.29 0.00 92 1016.1
20260506105247 45 275 0.0 3.0 0.00 0.29 0.00 92 1016.2
20260506104746 45 195 1.0 2.0 0.00 0.29 0.00 92 1016.2
20260506104245 45 223 0.0 3.0 0.00 0.29 0.00 93 1016.3
20260506103744 45 262 2.0 4.0 0.00 0.29 0.00 93 1016.1
20260506103243 45 216 2.0 3.0 0.00 0.29 0.00 93 1016.2
20260506102742 45 307 1.0 3.0 0.00 0.29 0.00 93 1016.4
20260506102241 45 288 1.0 2.0 0.00 0.29 0.00 94 1016.2
20260506101740 45 225 1.0 3.0 0.00 0.29 0.00 94 1016.3
20260506101239 45 261 3.0 3.0 0.00 0.29 0.00 94 1016.1
20260506100738 45 229 0.0 3.0 0.00 0.29 0.00 94 1015.8
20260506100237 45 253 0.0 3.0 0.00 0.29 0.00 93 1015.6
20260506095736 46 336 2.0 3.0 0.00 0.30 0.00 93 1015.4
20260506095235 46 334 1.0 2.0 0.00 0.30 0.00 92 1015.2
20260506094734 46 320 0.0 1.0 0.00 0.30 0.00 91 1015.2
20260506094233 46 306 1.0 2.0 0.00 0.30 0.00 90 1015.0
20260506093732 46 248 0.0 0.0 0.00 0.30 0.00 90 1015.0
20260506093231 46 248 0.0 0.0 0.00 0.30 0.00 89 1014.9
20260506092730 45 248 0.0 0.0 0.00 0.30 0.00 89 1015.0
20260506092229 45 248 0.0 0.0 0.00 0.30 0.00 89 1015.0
20260506091728 46 248 0.0 0.0 0.00 0.30 0.00 89 1014.9
20260506091227 46 248 0.0 0.0 0.00 0.30 0.00 89 1014.9
20260506090726 46 248 0.0 0.0 0.00 0.30 0.00 89 1014.8
20260506090225 45 248 0.0 0.0 0.00 0.30 0.00 89 1014.8
20260506085724 45 248 0.0 0.0 0.00 0.30 0.00 89 1014.9
20260506085223 46 248 0.0 0.0 0.00 0.30 0.00 89 1015.0
20260506084722 46 248 0.0 0.0 0.00 0.30 0.00 89 1015.0
20260506084221 46 248 0.0 0.0 0.00 0.30 0.00 89 1014.8
20260506083720 46 248 0.0 0.0 0.00 0.30 0.00 89 1014.9
20260506083219 46 248 0.0 0.0 0.00 0.30 0.00 89 1014.9
20260506082718 46 248 0.0 1.0 0.00 0.30 0.00 89 1015.2
20260506082217 46 115 0.0 0.0 0.00 0.30 0.00 88 1014.8